Regional Weather Roundup
Issued by NWS

Home | Current Version | Previous Version | Graphics & Text | Print | Product List | Glossary On
Versions: 1 2 3 4 5 6 7 8 9 10 11 12 13 14 15 16 17 18 19 20 21 22 23 24 25 26 27 28 29 30 31 32 33 34 35 36 37 38 39 40 41 42 43 44 45 46 47 48 49 50
000
ASUS43 KMPX 230301
RWRMN
WEATHER ROUNDUP FOR MINNESOTA
NATIONAL WEATHER SERVICE TWIN CITIES/CHANHASSEN MN
1000 PM CDT SUN APR 22 2018


NOTE: "FAIR" INDICATES FEW OR NO CLOUDS BELOW 12,000 FEET WITH NO
SIGNIFICANT WEATHER AND/OR OBSTRUCTIONS TO VISIBILITY. N/A MEANS
CURRENT SKY AND/OR WEATHER CONDITIONS ARE NOT AVAILABLE.

MNZ060>063-068>070-230400-
   Twin Cities Metro

CITY           SKY/WX    TMP DP  RH WIND       PRES   REMARKS
TWIN CITIES    FAIR      57  37  47 S5        30.25S
ST PAUL        FAIR      50  37  61 CALM      30.26R
BLAINE         FAIR      48  36  61 CALM      30.25S
LAKEVILLE      FAIR      46  37  71 CALM      30.25S
EDEN PRAIRIE   FAIR      54  36  50 S5        30.24S
SOUTH ST PAUL  FAIR      51  36  57 CALM      30.25R
LAKE ELMO      FAIR      48  37  66 CALM      30.26S
$$
MNZ001>005-007-008-013>017-022>024-027-028-230400-
   Northwest Minnesota

CITY           SKY/WX    TMP DP  RH WIND       PRES   REMARKS
BEMIDJI        FAIR      52  33  48 S9        30.18R
HALLOCK        FAIR      54  46  76 S7        30.09R
ROSEAU         FAIR      55  45  67 S8        30.11S
WARROAD        FAIR      52  45  76 S5        30.11S
THIEF RVR FALL CLOUDY    52  42  69 S13       30.14R
CROOKSTON      MOCLDY    54  43  66 S17       30.14R
FOSSTON        FAIR      48  37  66 S9        30.17S
DETROIT LAKES  FAIR      46  34  61 S7        30.21R
MOORHEAD       FAIR      50  39  66 S12       30.19R
PARK RAPIDS    FAIR      47  35  63 S6        30.20R
MAHNOMEN       FAIR      46  37  70 S9        30.18R
$$
MNZ006-009>011-018-025>026-230400-
   North Central Minnesota

CITY           SKY/WX    TMP DP  RH WIND       PRES   REMARKS
BAUDETTE       FAIR      50  39  66 S6        30.12S
FLAG ISLAND    FAIR      43  36  75 S6        30.09R
INTL FALLS     FAIR      47  33  58 SW5       30.14R
WASKISH        MOCLDY    54  37  54 S3        30.15S
BIG FORK       FAIR      46  30  53 CALM      30.18S
LONGVILLE      FAIR      41  30  65 CALM      30.21R
GRAND RAPIDS   FAIR      47  32  56 S6        30.23R
CRANE LAKE     FAIR      34  23  64 CALM      30.18
ORR            FAIR      48  25  40 S6        30.16S
COOK           FAIR      50  28  43 S5        30.20S
WALKER         FAIR      50  33  51 SW5       30.20R
$$
MNZ012-019>021-037-230400-
   Northeast Minnesota

CITY           SKY/WX    TMP DP  RH WIND       PRES   REMARKS
DULUTH         FAIR      46  28  49 S3        30.23S
ELY            FAIR      50  23  34 CALM      30.20S
HIBBING        FAIR      46  27  47 S3        30.21R
EVELETH        FAIR      48  27  44 SW6       30.22S
DULUTH HARBOR  FAIR      37  30  75 S3        30.26R
TWO HARBORS    FAIR      39  25  56 CALM      30.22S
SILVER BAY     FAIR      36  21  55 CALM      30.22F
GRAND MARAIS     N/A     33  24  69 CALM      30.25S
G MARAIS ARPRT FAIR      39  14  35 CALM      30.24S
$$
MNZ029>031-032-039>041-046>048-054>057-064-230400-
   West Central Minnesota

CITY           SKY/WX    TMP DP  RH WIND       PRES   REMARKS
FERGUS FALLS   FAIR      45  36  70 S9        30.20R
WHEATON        CLEAR     48  36  61 S9        30.24R
MORRIS         CLEAR     45  39  81 S13       30.23S
ALEXANDRIA     FAIR      47  38  71 SW5       30.24R
ELBOW LAKE     FAIR      42  37  84 S8        30.24R
WADENA         FAIR      45  36  70 S5        30.22R
GLENWOOD       FAIR      45  39  81 SW6       30.25S
APPLETON       CLEAR     48  37  66 S5        30.25R
BENSON         CLEAR     45  39  81 CALM      30.27R
ORTONVILLE     CLEAR     43  36  75 SE7       30.23S
MADISON        CLEAR     45  39  81 SE6       30.24S
WILLMAR        FAIR      45  39  81 CALM      30.28S
$$
MNZ033>034-036-042>043-049>051-058-059-230400-
   Central Minnesota

CITY           SKY/WX    TMP DP  RH WIND       PRES   REMARKS
ST CLOUD       FAIR      45  37  73 CALM      30.24R
SAUK CENTRE    FAIR      45  39  80 CALM      30.25R
PAYNESVILLE    FAIR      44  40  86 SW5       30.26R
AITKIN         FAIR      43  28  56 S3        30.22R
PINE RIVER     FAIR      43  32  65 CALM      30.25R
BRAINERD       FAIR      44  31  60 S7        30.23R
STAPLES        FAIR      45  34  65 S5        30.23R
LONG PRAIRIE   FAIR      41  36  81 S5        30.24S
LITTLE FALLS   FAIR      41  28  60 CALM      30.25R
LITCHFIELD     FAIR      46  41  81 CALM      30.26S
BUFFALO        FAIR      47  38  72 CALM      30.26R
MAPLE LAKE     FAIR      42  38  84 CALM      30.26R
HUTCHINSON     FAIR      46  45  97 CALM      30.27R
$$
MNZ037-044-045-052-053-230400-
   East Central Minnesota

CITY           SKY/WX    TMP DP  RH WIND       PRES   REMARKS
PRINCETON      FAIR      43  34  70 CALM      30.25S
MORA           FAIR      37  32  81 CALM      30.27R
CAMBRIDGE      FAIR      45  30  57 CALM      30.25S
RUSH CITY      FAIR      43  32  65 CALM      30.25R
MOOSE LAKE     FAIR      43  30  61 CALM      30.22S
HINCKLEY       FAIR      41  32  70 CALM      30.25R
CLOQUET        FAIR      52  25  35 SW3       30.23S
MCGREGOR       FAIR      46  32  57 S3        30.23S
$$
MNZ071>073-080-081-089-090-097-098-230400-
   Southwest Minnesota

CITY           SKY/WX    TMP DP  RH WIND       PRES   REMARKS
MONTEVIDEO     CLEAR     46  39  76 CALM      30.26S
GRANITE FALLS  CLEAR     45  40  82 CALM      30.27R
CANBY          CLEAR     43  38  82 CALM      30.26R
MARSHALL       CLEAR     43  39  86 SW3       30.26R
REDWOOD FALLS  CLEAR     49  41  74 CALM      30.25R
OLIVIA         CLEAR     46  43  87 CALM      30.25S
PIPESTONE      CLEAR    N/A N/A N/A E5        30.24R
WINDOM         CLEAR     39  25  56 CALM      30.25R
WORTHINGTON    CLEAR     43  38  82 E6        30.25R
JACKSON        MOCLDY    39  34  81 VRB3      30.25R
TRACY          CLEAR     41  37  85 CALM      30.25R
SLAYTON        CLEAR     40  36  83 CALM      30.25R
$$
MNZ065>067-074>077-082>085-091>093-230400-
   South Central Minnesota

CITY           SKY/WX    TMP DP  RH WIND       PRES   REMARKS
MANKATO        FAIR      51  39  63 CALM      30.26R
NEW ULM        CLEAR     46  37  71 CALM      30.25S
ST JAMES       CLEAR     41  37  87 CALM      30.26R
FAIRMONT       CLEAR     43  37  79 E3        30.24R
GLENCOE        FAIR      47  42  83 CALM      30.25R
OWATONNA       FAIR      46  39  76 E3        30.25S
WASECA         FAIR      45  37  76 CALM      30.26R
ALBERT LEA     FAIR      45  37  76 CALM      30.25S
$$
MNZ078>079-086>088-094>096-230400-
   Southeast Minnesota

CITY           SKY/WX    TMP DP  RH WIND       PRES   REMARKS
ROCHESTER      FAIR      50  33  52 E6        30.26R
RED WING       FAIR      45  30  57 CALM      30.25S
STANTON        FAIR      45  39  80 CALM      30.24S
DODGE CENTER   FAIR      46  37  71 E5        30.25S
WINONA         FAIR      48  36  61 CALM      30.24S
AUSTIN         FAIR      45  37  76 CALM      30.25R
PRESTON        FAIR      51  30  44 E5        30.26S
$$
ABBREVIATIONS USED IN REMARKS
   TC - TEMPERATURES IN CELSIUS
  WCI - WIND CHILL INDEX
   HX - HEAT INDEX
  VSB - VISIBILITY
$$



USA.gov is the U.S. government's official web portal to all federal, state and local government web resources and services.